Location: Lancaster
(34.6980°N, 118.1360°W)
Time: 07:33:50
(UTC-08:00)

Tiangong 1 - Visible Passes

Search period start: 18 November 2017 00:00
Search period end: 28 November 2017 00:00
Orbit: 286 x 309 km, 42.8° (Epoch: 18 November)

Date Brightness Start Highest point End Pass type
(mag) Time Alt. Az. Time Alt. Az. Time Alt. Az.
22 Nov 3.0 17:31:03 10° SSE 17:32:07 12° SE 17:33:07 10° ESE visible
23 Nov 1.9 17:36:23 10° SSW 17:38:39 27° SE 17:39:45 19° ESE visible
24 Nov 0.5 17:42:35 10° SW 17:45:09 70° SSE 17:46:11 31° ENE visible
25 Nov 1.1 17:49:05 10° WSW 17:51:36 48° NNW 17:52:26 32° NNE visible
26 Nov 2.1 17:55:46 10° W 17:58:01 26° NNW 17:58:30 24° N visible
27 Nov 2.7 18:02:29 10° WNW 18:04:23 18° NNW 18:04:25 18° NNW visible
